KD4IGN Weather Reports


time (UTC)temp
C
wind
direction
speed
KPH
gust
KPH
rain 1hr
cm
rain 24hr
cm
rain mn
cm
humidity
%
barometer
mb
20260906220517 25 191 3.2 11.3 0.00 0.00 0.00 35 1024.3
20260906215517 26 136 3.2 11.3 0.00 0.00 0.00 35 1024.4
20260906214541 26 181 3.2 11.3 0.00 0.00 0.00 34 1024.4
20260906213521 26 150 1.6 8.0 0.00 0.00 0.00 33 1024.4
20260906212518 26 156 4.8 16.1 0.00 0.00 0.00 34 1024.4
20260906211518 26 146 3.2 11.3 0.00 0.00 0.00 33 1024.6
20260906210519 25 166 1.6 8.0 0.00 0.00 0.00 34 1024.8
20260906205619 27 288 3.2 8.0 0.00 0.00 0.00 32 1024.7
20260906204521 28 169 1.6 8.0 0.00 0.00 0.00 30 1024.8
20260906203519 28 164 4.8 12.9 0.00 0.00 0.00 30 1024.9
20260906202519 27 139 3.2 9.7 0.00 0.00 0.00 31 1024.8
20260906201519 28 158 3.2 16.1 0.00 0.00 0.00 31 1024.9
20260906200539 28 156 1.6 11.3 0.00 0.00 0.00 30 1025.0
20260906195519 28 166 3.2 12.9 0.00 0.00 0.00 31 1025.0
20260906194519 28 71 1.6 9.7 0.00 0.00 0.00 31 1025.1
20260906193519 28 152 3.2 9.7 0.00 0.00 0.00 31 1025.2
20260906192519 27 153 1.6 8.0 0.00 0.00 0.00 32 1025.3
20260906191520 27 139 3.2 8.0 0.00 0.00 0.00 33 1025.3
20260906190517 26 137 1.6 9.7 0.00 0.00 0.00 33 1025.5
20260906185520 26 130 1.6 8.0 0.00 0.00 0.00 33 1025.6
20260906184520 25 155 3.2 9.7 0.00 0.00 0.00 34 1025.7
20260906183540 25 166 1.6 8.0 0.00 0.00 0.00 35 1025.8
20260906182520 25 122 1.6 6.4 0.00 0.00 0.00 33 1025.9
20260906181537 26 165 1.6 6.4 0.00 0.00 0.00 32 1026.0
20260906180521 26 309 3.2 9.7 0.00 0.00 0.00 31 1026.2
20260906175541 26 312 3.2 6.4 0.00 0.00 0.00 32 1026.4
20260906174518 25 351 1.6 9.7 0.00 0.00 0.00 33 1026.5
20260906173518 24 304 1.6 4.8 0.00 0.00 0.00 34 1026.5
20260906172518 24 234 0.0 3.2 0.00 0.00 0.00 34 1026.6
20260906171521 25 147 1.6 4.8 0.00 0.00 0.00 33 1026.7
20260906170521 25 336 1.6 6.4 0.00 0.00 0.00 33 1026.7
20260906165518 24 145 1.6 6.4 0.00 0.00 0.00 33 1026.6
20260906164519 23 350 0.0 4.8 0.00 0.00 0.00 33 1026.7
20260906163519 23 320 1.6 3.2 0.00 0.00 0.00 33 1026.8
20260906162522 23 281 1.6 4.8 0.00 0.00 0.00 34 1026.8
20260906161518 23 264 1.6 6.4 0.00 0.00 0.00 34 1026.9
20260906160559 23 10 3.2 6.4 0.00 0.00 0.00 34 1026.9
20260906155519 22 345 1.6 8.0 0.00 0.00 0.00 35 1026.9
20260906154520 21 7 0.0 3.2 0.00 0.00 0.00 38 1026.9
20260906153519 20 297 0.0 3.2 0.00 0.00 0.00 40 1027.0
20260906152540 18 329 1.6 3.2 0.00 0.00 0.00 46 1027.2
20260906151525 17 4 0.0 0.0 0.00 0.00 0.00 51 1027.2
20260906150525 16 0.0 0.0 0.00 0.00 0.00 53 1027.4
20260906145526 16 355 1.6 4.8 0.00 0.00 0.00 53 1027.3
20260906144518 15 350 1.6 3.2 0.00 0.00 0.00 58 1027.3
20260906143517 14 348 0.0 3.2 0.00 0.00 0.00 60 1027.3
20260906142521 13 21 1.6 4.8 0.00 0.00 0.00 64 1027.3
20260906141521 12 285 0.0 1.6 0.00 0.00 0.00 65 1027.3
20260906140539 12 127 0.0 3.2 0.00 0.00 0.00 67 1027.3
20260906135518 12 73 0.0 3.2 0.00 0.00 0.00 66 1027.2
20260906134518 11 29 0.0 1.6 0.00 0.00 0.00 69 1027.2
20260906133538 10 35 0.0 1.6 0.00 0.00 0.00 72 1027.1
20260906132522 10 0.0 0.0 0.00 0.00 0.00 72 1027.0
20260906131518 10 207 0.0 3.2 0.00 0.00 0.00 73 1026.9
20260906130519 10 198 0.0 0.0 0.00 0.00 0.00 72 1026.8
20260906125519 9 240 0.0 3.2 0.00 0.00 0.00 72 1026.8
20260906124519 10 118 0.0 0.0 0.00 0.00 0.00 72 1026.7
20260906123539 10 328 0.0 3.2 0.00 0.00 0.00 71 1026.6
20260906122519 10 210 0.0 1.6 0.00 0.00 0.00 69 1026.6
20260906121519 10 293 0.0 3.2 0.00 0.00 0.00 70 1026.6
20260906120519 10 165 0.0 4.8 0.00 0.00 0.00 69 1026.7
20260906115521 10 0.0 0.0 0.00 0.00 0.00 69 1026.7
20260906114519 10 310 0.0 1.6 0.00 0.00 0.00 69 1026.7
20260906113520 10 199 0.0 1.6 0.00 0.00 0.00 68 1026.8
20260906112520 11 238 0.0 1.6 0.00 0.00 0.00 67 1026.9
20260906111520 10 154 0.0 3.2 0.00 0.00 0.00 68 1026.8
20260906110520 10 219 0.0 3.2 0.00 0.00 0.00 69 1026.8
20260906105538 10 195 0.0 1.6 0.00 0.00 0.00 69 1026.8
20260906104517 10 280 0.0 1.6 0.00 0.00 0.00 69 1026.7
20260906103521 10 282 0.0 1.6 0.00 0.00 0.00 68 1026.6
20260906102521 11 208 0.0 1.6 0.00 0.00 0.00 67 1026.8
20260906101521 11 270 0.0 1.6 0.00 0.00 0.00 67 1026.7
20260906100518 11 214 0.0 1.6 0.00 0.00 0.00 66 1026.7
20260906095518 11 193 0.0 3.2 0.00 0.00 0.00 66 1026.9
20260906094518 11 190 0.0 3.2 0.00 0.00 0.00 66 1027.0
20260906093521 11 15 0.0 1.6 0.00 0.00 0.00 65 1026.9
20260906092519 11 218 0.0 3.2 0.00 0.00 0.00 65 1026.9
20260906091518 11 314 0.0 1.6 0.00 0.00 0.00 66 1026.8
20260906090518 11 57 0.0 1.6 0.00 0.00 0.00 66 1026.7
20260906085539 12 209 1.6 3.2 0.00 0.00 0.00 66 1026.7
20260906084519 12 197 1.6 3.2 0.00 0.00 0.00 67 1026.8
20260906083519 12 187 0.0 3.2 0.00 0.00 0.00 65 1026.8
20260906082519 13 241 0.0 3.2 0.00 0.00 0.00 63 1026.9
20260906081539 13 292 0.0 4.8 0.00 0.00 0.00 60 1027.0
20260906080519 14 295 1.6 6.4 0.00 0.00 0.00 59 1027.0
20260906075517 14 193 1.6 3.2 0.00 0.00 0.00 59 1027.0
20260906074519 13 234 1.6 3.2 0.00 0.00 0.00 61 1027.0
20260906073520 13 229 1.6 3.2 0.00 0.00 0.00 61 1027.1
20260906072520 13 238 0.0 3.2 0.00 0.00 0.00 62 1027.1
20260906071520 13 279 1.6 4.8 0.00 0.00 0.00 61 1027.0
20260906070537 13 260 1.6 4.8 0.00 0.00 0.00 60 1026.9
20260906065520 14 268 1.6 8.0 0.00 0.00 0.00 60 1027.0
20260906064541 14 261 1.6 4.8 0.00 0.00 0.00 58 1027.2
20260906063518 15 244 0.0 3.2 0.00 0.00 0.00 57 1027.3
20260906062518 15 199 0.0 1.6 0.00 0.00 0.00 55 1027.2
20260906061517 15 303 1.6 4.8 0.00 0.00 0.00 55 1027.3
20260906060521 15 286 0.0 1.6 0.00 0.00 0.00 54 1027.1
20260906055521 15 171 1.6 4.8 0.00 0.00 0.00 56 1027.2
20260906054518 15 168 1.6 6.4 0.00 0.00 0.00 57 1027.3
20260906053538 15 238 0.0 1.6 0.00 0.00 0.00 57 1027.3
20260906052518 15 111 0.0 3.2 0.00 0.00 0.00 56 1027.3
20260906051541 15 2 1.6 6.4 0.00 0.00 0.00 55 1027.2
20260906050519 15 313 1.6 6.4 0.00 0.00 0.00 55 1027.1
20260906045539 15 296 0.0 4.8 0.00 0.00 0.00 55 1027.0
20260906044518 15 193 0.0 1.6 0.00 0.00 0.00 54 1027.1
20260906043519 15 27 0.0 1.6 0.00 0.00 0.00 58 1026.9
20260906042519 15 200 0.0 1.6 0.00 0.00 0.00 58 1026.9
20260906041539 15 224 0.0 3.2 0.00 0.00 0.00 58 1026.9
20260906040539 15 0.0 0.0 0.00 0.00 0.00 57 1026.9
20260906035541 16 284 0.0 1.6 0.00 0.00 0.00 56 1027.0
20260906034520 16 162 0.0 3.2 0.00 0.00 0.00 55 1027.1
20260906033517 15 299 1.6 6.4 0.00 0.00 0.00 56 1027.1
20260906032520 16 276 0.0 1.6 0.00 0.00 0.00 55 1027.0
20260906031600 16 265 0.0 3.2 0.00 0.00 0.00 53 1027.0
20260906030520 16 130 1.6 4.8 0.00 0.00 0.00 53 1026.8
20260906025520 17 201 0.0 3.2 0.00 0.00 0.00 52 1026.8
20260906024517 17 314 0.0 3.2 0.00 0.00 0.00 50 1026.8
20260906023520 18 289 1.6 4.8 0.00 0.00 0.00 48 1026.8
20260906022520 18 327 0.0 1.6 0.00 0.00 0.00 47 1026.7
20260906021518 18 116 3.2 6.4 0.00 0.00 0.00 46 1026.6
20260906020518 18 224 0.0 1.6 0.00 0.00 0.00 48 1026.5
20260906015518 19 115 1.6 4.8 0.00 0.00 0.00 46 1026.5
20260906014521 19 299 0.0 3.2 0.00 0.00 0.00 47 1026.5
20260906013519 19 171 1.6 6.4 0.00 0.00 0.00 46 1026.6
20260906012519 20 132 1.6 6.4 0.00 0.00 0.00 44 1026.7
20260906011558 20 343 1.6 6.4 0.00 0.00 0.00 43 1026.6
20260906010518 20 339 1.6 8.0 0.00 0.00 0.00 44 1026.7
20260906005518 20 357 0.0 3.2 0.00 0.00 0.00 45 1026.6
20260906004519 21 190 3.2 9.7 0.00 0.00 0.00 44 1027.0
20260906003519 21 180 1.6 6.4 0.00 0.00 0.00 41 1027.3
20260906002519 21 151 1.6 6.4 0.00 0.00 0.00 40 1027.1
20260906001539 21 310 0.0 3.2 0.00 0.00 0.00 39 1026.9
20260906000519 21 9 1.6 4.8 0.00 0.00 0.00 40 1026.9
20260905235539 22 6 1.6 8.0 0.00 0.00 0.00 39 1026.9
20260905234519 22 26 3.2 8.0 0.00 0.00 0.00 38 1026.7
20260905233520 22 336 4.8 11.3 0.00 0.00 0.00 37 1026.8
20260905232520 22 58 1.6 6.4 0.00 0.00 0.00 35 1026.8
20260905231520 22 287 1.6 6.4 0.00 0.00 0.00 35 1026.7
20260905230520 22 223 1.6 4.8 0.00 0.00 0.00 36 1026.4
20260905225520 22 144 3.2 11.3 0.00 0.00 0.00 39 1026.2
20260905224520 23 148 6.4 12.9 0.00 0.00 0.00 34 1026.1
20260905223541 25 145 3.2 8.0 0.00 0.00 0.00 30 1025.9
20260905222517 25 127 1.6 4.8 0.00 0.00 0.00 28 1025.8
20260905221538 25 176 0.0 6.4 0.00 0.00 0.00 28 1025.8